Flag for Nigeria Weather past 2 weeks in Enugu, Nigeria

Now
86 °F

Broken clouds.


Feels Like: 95 °F
Forecast: 78 / 94 °F
Wind: 9 mph from Southwest

Location: Douala Obs.

Current Time: Feb 27, 2015 at 6:28:24 PM

Latest Report: Feb 27, 2015 at 6:00 PM


Visibility: N/A

Pressure: 29.80 "Hg

Humidity: 70%

Dew point: 75 °F

Location of EnuguLocation

Historic Weather in Enugu — Graph

°F

Enugu temperature yesterday

Maximum temperature yesterday: 86 °F (at 3:00 PM)
Minimum temperature yesterday: 77 °F (at 6:00 AM)
Average temperature yesterday: 81 °F

Past Weeks' High & Low Weather Summary

 TemperatureHumidityPressure
High93 °F (Feb 16, 2:00 PM)100% (Feb 15, 7:00 AM)29.95 "Hg (Feb 15, 7:00 AM)
Low72 °F (Feb 19, 2:00 AM)59% (Feb 14, 1:00 PM)29.71 "Hg (Feb 17, 6:00 PM)
Average82 °F83%29.82 "Hg
* Reported Feb 12 5:00 PM — Feb 27 5:00 PM, Enugu, Weather by CustomWeather, © 2015

Note: Actual official high and low records may vary slightly from our data, if they occured in-between our weather recording intervals... More about our weather records

Advertising

Enugu weather history for previous 24 hours

 ConditionsComfort  
Time TempWeatherWind HumidityBarometerVisibility
5:00 PM
Fri, Feb 27
88 °FBroken clouds.12 mph66%29.77 "HgN/A
4:00 PM90 °FBroken clouds.9 mph71%29.77 "HgN/A
3:00 PM90 °FPartly sunny.9 mph67%29.77 "HgN/A
2:00 PM90 °FPartly sunny.7 mph63%29.80 "HgN/A
1:00 PM86 °FBroken clouds.9 mph70%29.86 "HgN/A
12:00 PM84 °FBroken clouds.9 mph74%29.86 "Hg4 mi
11:00 AM82 °FBroken clouds.5 mph79%29.89 "Hg5 mi
10:00 AM79 °FBroken clouds.5 mph84%29.89 "Hg5 mi
9:00 AM77 °FBroken clouds.5 mph89%29.86 "Hg4 mi
8:00 AM77 °FThunderstorms. Fog.No wind83%29.83 "Hg2 mi
7:00 AM73 °FThunderstorms. Broken clouds.No wind94%29.83 "Hg5 mi
6:00 AM73 °FThunderstorms. Partly cloudy.No wind94%29.83 "Hg5 mi
5:00 AM73 °FThunderstorms. Passing clouds.No wind94%29.83 "Hg5 mi
4:00 AM73 °FThunderstorms. Passing clouds.5 mph94%29.83 "Hg4 mi
3:00 AM73 °FThunderstorms. Passing clouds.No wind94%29.83 "Hg4 mi
2:00 AM75 °FThunderstorms. Passing clouds.5 mph89%29.86 "Hg5 mi
1:00 AM75 °FThunderstorms. Passing clouds.7 mph89%29.83 "HgN/A
12:00 AM77 °FThunderstorms. Passing clouds.7 mph83%29.86 "HgN/A
11:00 PM
Thu, Feb 26
79 °FThunderstorms. Passing clouds.No wind84%29.83 "HgN/A
10:00 PM81 °FThunderstorms. Passing clouds.7 mph84%29.83 "Hg5 mi
9:00 PM81 °FThunderstorms. Partly cloudy.5 mph89%29.80 "HgN/A
8:00 PM81 °FThunderstorms. Partly cloudy.5 mph89%29.80 "HgN/A
7:00 PM82 °FPartly cloudy.5 mph84%29.77 "HgN/A
6:00 PM84 °FBroken clouds.7 mph74%29.74 "HgN/A
Weather by CustomWeather, © 2015

See weather overviewHow to use our weather pages